Location: Bassano
(45.7667°N, 11.7333°E)
Time: 21:55:32
(UTC+00:00)

Cosmos 1758 Rocket - Pass Details

Date: 07 June 2020
Orbit: 602 x 636 km, 82.5° (Epoch: 14 July)

Event Time Altitude Azimuth Distance (km) Brightness Sun altitude
Exits shadow 00:15:28 47° 221° (SW) 819 3.7 -20.0°
Maximum altitude 00:16:32 66° 281° (W) 683 3.7 -19.9°
Drops below altitude 10° 00:20:57 10° 4° (N) 2,008 7.3 -19.7°
Sets 00:23:14 0° 7° (N) 2,925 8.6 -19.6°
